DW1905 Weather Reports


Display with metric or nautical units.
time (UTC)temp
F
wind
direction
speed
MPH
gust
MPH
rain 1hr
in
rain 24hr
in
rain mn
in
humidity
%
barometer
mb
20210616021505 77 293 0.0 0.0 0.00 0.00 0.00 51 1011.5
20210616020007 77 313 0.0 0.0 0.00 0.00 0.00 50 1011.3
20210616014538 78 304 0.0 0.0 0.00 0.00 0.00 49 1011.4
20210616013119 78 274 0.0 0.0 0.00 0.00 0.00 49 1011.4
20210616011537 79 296 0.0 0.0 0.00 0.00 0.00 48 1011.1
20210616010041 80 339 0.0 0.0 0.00 0.00 0.00 47 1011.1
20210616004531 81 315 0.0 0.0 0.00 0.00 0.00 46 1011.1
20210616003112 82 297 0.0 0.0 0.00 0.00 0.00 45 1011.2
20210616001552 83 325 0.0 0.0 0.00 0.00 0.00 44 1010.8
20210616000040 83 273 0.0 0.0 0.00 0.00 0.00 43 1010.6
20210615234534 84 306 0.0 1.0 0.00 0.00 0.00 42 1010.5
20210615233048 84 271 4.0 12.0 0.00 0.00 0.00 40 1010.4
20210615231558 84 318 0.0 16.0 0.00 0.00 0.00 40 1010.3
20210615230114 85 288 0.0 18.0 0.00 0.00 0.00 40 1010.0
20210615224648 85 55 0.0 11.0 0.00 0.00 0.00 39 1009.9
20210615221653 86 16 0.0 7.0 0.00 0.00 0.00 36 1009.7
20210615220135 86 18 0.0 7.0 0.00 0.00 0.00 36 1009.8
20210615214618 86 304 0.0 12.0 0.00 0.00 0.00 35 1009.8
20210615213146 85 56 6.0 17.0 0.00 0.00 0.00 34 1010.0
20210615211745 85 265 1.0 19.0 0.00 0.00 0.00 34 1010.0
20210615210133 86 27 6.0 15.0 0.00 0.00 0.00 32 1010.0
20210615204640 87 325 6.0 13.0 0.00 0.00 0.00 33 1010.0
20210615203152 87 302 4.0 11.0 0.00 0.00 0.00 36 1009.9
20210615201630 86 43 2.0 13.0 0.00 0.00 0.00 34 1010.0
20210615200052 87 312 8.0 22.0 0.00 0.00 0.00 32 1010.2
20210615194602 87 300 8.0 18.0 0.00 0.00 0.00 34 1010.3
20210615193230 87 241 7.0 15.0 0.00 0.00 0.00 35 1010.3
20210615191558 87 41 2.0 10.0 0.00 0.00 0.00 36 1010.4
20210615190133 86 119 6.0 13.0 0.00 0.00 0.00 36 1010.6
20210615184523 87 240 8.0 13.0 0.00 0.00 0.00 41 1010.4
20210615183010 86 20 0.0 11.0 0.00 0.00 0.00 40 1010.4
20210615180124 86 302 9.0 24.0 0.00 0.00 0.00 31 1010.5
20210615174540 86 309 2.0 16.0 0.00 0.00 0.00 43 1010.4
20210615173054 86 323 4.0 14.0 0.00 0.00 0.00 43 1010.8
20210615171549 85 278 6.0 16.0 0.00 0.00 0.00 42 1010.7
20210615171546 85 278 7.0 16.0 0.00 0.00 0.00 42 1010.7
20210615170032 85 274 0.0 14.0 0.00 0.00 0.00 42 1010.8
20210615164613 86 293 0.0 6.0 0.00 0.00 0.00 44 1010.8
20210615163020 86 282 0.0 13.0 0.00 0.00 0.00 42 1010.9
20210615161525 85 59 0.0 13.0 0.00 0.00 0.00 44 1010.8
20210615160034 85 304 0.0 13.0 0.00 0.00 0.00 46 1010.9
20210615154515 85 277 0.0 9.0 0.00 0.00 0.00 49 1010.8
20210615153021 84 273 0.0 1.0 0.00 0.00 0.00 52 1010.9
20210615150008 83 302 4.0 11.0 0.00 0.00 0.00 55 1011.0
20210615144506 82 262 6.0 9.0 0.00 0.00 0.00 58 1010.9
20210615143213 81 286 0.0 11.0 0.00 0.00 0.00 64 1010.8
20210615141603 81 281 4.0 11.0 0.00 0.00 0.00 64 1010.8
20210615140247 80 295 0.0 0.0 0.00 0.00 0.00 66 1010.9
20210615134754 80 313 0.0 0.0 0.00 0.00 0.00 68 1010.9
20210615133040 79 263 0.0 1.0 0.00 0.00 0.00 68 1010.9
20210615131521 78 281 0.0 9.0 0.00 0.00 0.00 69 1010.7
20210615130023 78 272 0.0 5.0 0.00 0.00 0.00 70 1010.6
20210615124518 77 278 0.0 0.0 0.00 0.00 0.00 73 1010.5
20210615123027 76 281 0.0 0.0 0.00 0.00 0.00 76 1010.7
20210615121525 75 244 0.0 0.0 0.00 0.00 0.00 77 1010.5
20210615120122 73 281 0.0 0.0 0.00 0.00 0.00 79 1010.3
20210615114547 73 283 0.0 0.0 0.00 0.00 0.00 79 1010.3
20210615113116 72 309 0.0 0.0 0.00 0.00 0.00 78 1010.2
20210615111556 72 309 0.0 0.0 0.00 0.00 0.00 79 1010.0
20210615110226 71 309 0.0 0.0 0.00 0.00 0.00 78 1010.0
20210615104552 71 309 0.0 0.0 0.00 0.00 0.00 79 1009.9
20210615103057 72 309 0.0 0.0 0.00 0.00 0.00 79 1009.7
20210615101621 72 309 0.0 0.0 0.00 0.00 0.00 79 1009.6
20210615100057 72 309 0.0 0.0 0.00 0.00 0.00 79 1009.6
20210615094606 72 309 0.0 0.0 0.00 0.00 0.00 78 1009.6
20210615093042 71 327 0.0 0.0 0.00 0.00 0.00 77 1009.5
20210615091604 70 315 0.0 0.0 0.00 0.00 0.00 73 1009.4
20210615084607 70 217 0.0 0.0 0.00 0.00 0.00 71 1009.2
20210615083028 70 217 0.0 0.0 0.00 0.00 0.00 71 1009.3
20210615081546 71 217 0.0 0.0 0.00 0.00 0.00 72 1009.2
20210615080057 71 217 0.0 0.0 0.00 0.00 0.00 72 1009.2
20210615074517 72 217 0.0 0.0 0.00 0.00 0.00 71 1009.4
20210615073018 71 217 0.0 0.0 0.00 0.00 0.00 70 1009.5
20210615071525 71 215 0.0 0.0 0.00 0.00 0.00 67 1009.4
20210615070033 71 215 0.0 0.0 0.00 0.00 0.00 67 1009.5
20210615064537 72 215 0.0 0.0 0.00 0.00 0.00 67 1009.6
20210615063008 72 215 0.0 0.0 0.00 0.00 0.00 67 1009.7
20210615061525 72 215 0.0 0.0 0.00 0.00 0.00 68 1009.8
20210615060008 73 215 0.0 0.0 0.00 0.00 0.00 69 1009.8
20210615054505 73 215 0.0 0.0 0.00 0.00 0.00 69 1009.9
20210615053032 74 215 0.0 0.0 0.00 0.00 0.00 70 1010.0
20210615051604 74 215 0.0 0.0 0.00 0.00 0.00 70 1010.2
20210615050046 74 215 0.0 0.0 0.00 0.00 0.00 71 1010.4
20210615044612 75 215 0.0 0.0 0.00 0.00 0.00 73 1010.3
20210615043104 75 215 0.0 0.0 0.00 0.00 0.00 73 1010.4
20210615041519 76 215 0.0 0.0 0.00 0.00 0.00 74 1010.3
20210615034631 76 215 0.0 0.0 0.00 0.00 0.00 74 1010.1
20210615033049 77 215 0.0 0.0 0.00 0.00 0.00 75 1010.0
20210615031514 78 215 0.0 0.0 0.00 0.00 0.00 76 1010.0
20210615030011 78 215 0.0 0.0 0.00 0.00 0.00 76 1010.0
20210615024506 79 215 0.0 0.0 0.00 0.00 0.00 77 1009.7
20210615023002 79 215 0.0 0.0 0.00 0.00 0.00 77 1009.5